Regional Weather Roundup
Issued by NWS

Home | Current Version | Previous Version | Graphics & Text | Print | Product List | Glossary On
Versions: 1 2 3 4 5 6 7 8 9 10 11 12 13 14 15 16 17 18 19 20 21 22 23 24 25 26 27 28 29 30 31 32 33 34 35 36 37 38 39 40 41 42 43 44 45 46 47 48 49 50
680
ASUS43 KIND 091759
RWRIN

WEATHER ROUNDUP FOR INDIANA
NATIONAL WEATHER SERVICE INDIANAPOLIS IN
100 PM EST FRI DEC 09 2016

NOTE: "FAIR" INDICATES FEW OR NO CLOUDS BELOW 12,000 FEET WITH NO
SIGNIFICANT WEATHER AND/OR OBSTRUCTIONS TO VISIBILITY.

* - STATION DOES NOT REPORT WEATHER SUCH AS PRECIPITATION OR FOG.

+ - STATION NOT QUALITY CONTROLLED BY THE NATIONAL WEATHER SERVICE.
    USE DATA WITH CAUTION...ESPECIALLY DEWPOINT AND RELATIVE
    HUMIDITY OBSERVATIONS.

INZ001>003-010>013-019-020-091900-
NORTHWEST INDIANA

CITY           SKY/WX    TMP DP  RH WIND       PRES   REMARKS
GARY /AIRPORT/ CLOUDY    28  16  59 W13       30.52F WCI  18

$$

LMZ046-743>745-091900-
SOUTHERN LAKE MICHIGAN

STATION/POSITION TIME  TEMP    WIND        PRES    WAVE
                       AIR SEA DIR/SP/G            HT
                 (UTC) (F)     (DEG/KT/KT) (MB)    (FT)

$$

INZ004-005-014>016-021>024-091900-
NORTH CENTRAL INDIANA

CITY           SKY/WX    TMP DP  RH WIND       PRES   REMARKS
ELKHART        FLURRIES  28  21  74 W17       30.45F WCI  16
GOSHEN         LGT SNOW  27  20  75 W17       30.46S WCI  14
6HR MIN TEMP:  21; 6HR MAX TEMP:  29; 6HR PCP: TRACE;

PERU/GRISSOM   PTSUNNY   28  19  69 NW13      30.47F WCI  18
SOUTH BEND     LGT SNOW  25  22  88 NW9       30.47F VSB 1   WCI  15
6HR MIN TEMP:  20; 6HR MAX TEMP:  26; 6HR PCP: TRACE;


$$

INZ006>009-017-018-025>027-091900-
NORTHEAST INDIANA

CITY           SKY/WX    TMP DP  RH WIND       PRES   REMARKS
ANGOLA *+      CLOUDY    27  21  80 W8        30.41F WCI  18
FORT WAYNE     CLOUDY    28  19  69 W13       30.46F WCI  17
6HR MIN TEMP:  21; 6HR MAX TEMP:  28; 6HR PCP: TRACE;

KENDALLVILLE + CLOUDY    28  21  78 W14G20    30.43F WCI  16

$$

INZ028-029-035-036-043>045-051>053-091900-
WEST CENTRAL INDIANA

CITY           SKY/WX    TMP DP  RH WIND       PRES   REMARKS
CRAWFORDSVL +  FLURRIES  24  18  77 W8        30.53F WCI  15
6HR MIN TEMP:  18; 6HR MAX TEMP:  24;

GREENCASTLE +  CLOUDY    27  18  69 NW3       30.54S
LAFAYETTE      CLOUDY    26  18  71 W9        30.53F WCI  17
6HR MIN TEMP:  22; 6HR MAX TEMP:  27; 6HR PCP: TRACE;

TERRE HAUTE    CLOUDY    26  12  55 NW5       30.57F WCI  20
6HR MIN TEMP:  22; 6HR MAX TEMP:  27; 6HR PCP: TRACE;


$$

INZ030>032-037>040-046>048-054>057-064-065-091900-
CENTRAL INDIANA

CITY           SKY/WX    TMP DP  RH WIND       PRES   REMARKS
ANDERSON       CLOUDY    25  18  74 NW12G17   30.51F WCI  14
COLUMBUS       FLURRIES  25  16  68 W9        30.55F WCI  15
GREENWOOD *+   PTSUNNY   27  16  64 NW6G20    30.53F WCI  20
6HR MIN TEMP:  21; 6HR MAX TEMP:  27;

INDIANAPOLIS   FLURRIES  27  15  61 W10G17    30.52F WCI  17
6HR MIN TEMP:  20; 6HR MAX TEMP:  29; 6HR PCP: TRACE;

-EAGLE CREEK   PTSUNNY   26  16  65 W9        30.52S WCI  17
6HR MIN TEMP:  21; 6HR MAX TEMP:  28;

KOKOMO +       CLOUDY    26  20  77 W15       30.50F WCI  14
6HR MIN TEMP:  19; 6HR MAX TEMP:  26; 6HR PCP: TRACE;

SHELBYVILLE    CLOUDY    27  15  61 W13G20    30.52F WCI  16
6HR MIN TEMP:  21; 6HR MAX TEMP:  28; 6HR PCP: TRACE;


$$

INZ033-034-041-042-049-050-058-059-091900-
EAST CENTRAL INDIANA

CITY           SKY/WX    TMP DP  RH WIND       PRES   REMARKS
MUNCIE         CLOUDY    25  18  74 W12       30.49F WCI  14
6HR MIN TEMP:  18; 6HR MAX TEMP:  25;


$$

INZ060-061-067>069-081>083-085>088-091900-
SOUTHWEST INDIANA

CITY           SKY/WX    TMP DP  RH WIND       PRES   REMARKS
EVANSVILLE     MOSUNNY   30  13  49 CALM      30.60F
6HR MIN TEMP:  23; 6HR MAX TEMP:  31;

HUNTINGBURG *+ CLOUDY    25  15  66 VRB5      30.59F WCI  19
6HR MIN TEMP:  22; 6HR MAX TEMP:  26; 6HR PCP: TRACE;


$$

INZ062-063-066-070>080-084-089>092-091900-
SOUTH CENTRAL AND SOUTHEAST INDIANA

CITY           SKY/WX    TMP DP  RH WIND       PRES   REMARKS
BLOOMINGTON    CLOUDY    23  13  65 W8        30.55F WCI  14
6HR MIN TEMP:  20; 6HR MAX TEMP:  24; 6HR PCP: TRACE;

MADISON *+     CLOUDY    25  12  58 W5        30.57F WCI  19
SEYMOUR +      CLOUDY    27  12  54 W7        30.57  WCI  19

$$





USA.gov is the U.S. government's official web portal to all federal, state and local government web resources and services.